Douglas Bisbee, AZ

10:09 AM MST on December 13, 2017 (GMT -0700)
Bisbee Douglas International

Weather History for KDUG - March, 2013

Change the Weather History Date:

Wednesday, March 13, 2013

  Actual Average Record
Temperature  
Mean Temperature 58 °F 54 °F  
Max Temperature 81 °F 71 °F 87 °F (1989)
Min Temperature 35 °F 37 °F 17 °F (1956)
Degree Days  
Heating Degree Days 7 11  
Month to date heating degree days 156 155  
Since 1 July heating degree days 2360 2191  
Cooling Degree Days 0 0  
Month to date cooling degree days 0 0  
Year to date cooling degree days 0 0  
Growing Degree Days 8 (Base 50)    
Moisture  
Dew Point 14 °F    
Average Humidity 23    
Maximum Humidity 38    
Minimum Humidity 7    
Precipitation  
Precipitation 0.00 in 0.02 in 0.48 in (1982)
Month to date precipitation 0.02 0.25  
Year to date precipitation 0.86 1.64  
Snow  
Snow 0.00 in - - ()
Month to date snowfall 0.0  
Snow Depth 0.00 in    
Sea Level Pressure  
Sea Level Pressure 30.07 in    
Wind  
Wind Speed 6 mph (NNE)    
Max Wind Speed 14 mph    
Max Gust Speed 17 mph    
Visibility 10 miles    
Events      
T = Trace of Precipitation, MM = Missing Value Source: NWS Daily Summary

Daily Weather History Graph

Daily Weather History Graph

Search for Another Location

Airport or City:

Trip Planner

Search our weather history database for the weather conditions in past years. The results will help you decide how hot, cold, wet, or windy it might be!

Date:

Astronomy

Mar. 13, 2013 Rise Set
Actual Time 6:30 AM MST 6:25 PM MST
Civil Twilight 6:06 AM MST 6:49 PM MST
Nautical Twilight 5:38 AM MST 7:17 PM MST
Astronomical Twilight 5:09 AM MST 7:46 PM MST
Moon 7:21 AM MST 8:33 PM MST
Length of Visible Light 12h 43m
Length of Day
11h 54m
Waxing Crescent, 4% of the Moon is Illuminated
Mar 13
Waxing Crescent
Mar 19
First Quarter
Mar 27
Full
Apr 2
Last Quarter
Apr 10
New

Hourly Weather History & Observations

Time (MST) Temp. Windchill Dew Point Humidity Pressure Visibility Wind Dir Wind Speed Gust Speed Precip Events Conditions
12:56 AM 51.1 °F - 14.0 °F 23% 30.05 in 10.0 mi North 5.8 mph - N/A   Clear
1:56 AM 46.9 °F - 12.0 °F 24% 30.07 in 10.0 mi North 5.8 mph - N/A   Clear
2:56 AM 46.9 °F - 12.0 °F 24% 30.06 in 10.0 mi NE 6.9 mph - N/A   Clear
3:56 AM 43.0 °F - 12.0 °F 28% 30.07 in 10.0 mi Calm Calm - N/A   Clear
4:56 AM 36.0 °F 32.1 °F 12.0 °F 37% 30.09 in 10.0 mi SSE 4.6 mph - N/A   Clear
5:56 AM 37.0 °F 33.3 °F 12.9 °F 37% 30.10 in 10.0 mi ENE 4.6 mph - N/A   Clear
6:56 AM 39.0 °F 34.8 °F 14.0 °F 36% 30.14 in 10.0 mi North 5.8 mph - N/A   Clear
7:56 AM 53.1 °F - 19.9 °F 27% 30.14 in 10.0 mi North 9.2 mph - N/A   Clear
8:56 AM 57.9 °F - 21.0 °F 24% 30.14 in 10.0 mi WNW 4.6 mph - N/A   Clear
9:56 AM 64.9 °F - 18.0 °F 16% 30.15 in 10.0 mi SSE 3.5 mph - N/A   Clear
10:56 AM 71.1 °F - 17.1 °F 13% 30.12 in 10.0 mi Variable 6.9 mph - N/A   Clear
11:56 AM 75.0 °F - 15.1 °F 10% 30.09 in 10.0 mi NE 3.5 mph - N/A   Clear
1:56 PM 78.1 °F - 10.9 °F 8% 30.04 in 10.0 mi Variable 3.5 mph - N/A   Clear
2:56 PM 79.0 °F - 10.9 °F 8% 30.03 in 10.0 mi South 3.5 mph - N/A   Clear
3:56 PM 81.0 °F - 12.0 °F 7% 30.01 in 10.0 mi Variable 3.5 mph - N/A   Clear
4:56 PM 80.1 °F - 12.0 °F 8% 30.02 in 10.0 mi Calm Calm - N/A   Clear
5:56 PM 78.1 °F - 10.9 °F 8% 30.02 in 10.0 mi Calm Calm - N/A   Clear
6:56 PM 69.1 °F - 10.0 °F 10% 30.05 in 10.0 mi North 4.6 mph - N/A   Clear
7:56 PM 62.1 °F - 10.9 °F 13% 30.04 in 10.0 mi NE 11.5 mph - N/A   Clear
8:56 PM 63.0 °F - 16.0 °F 16% 30.05 in 10.0 mi ENE 9.2 mph - N/A   Clear
9:56 PM 54.0 °F - 14.0 °F 21% 30.07 in 10.0 mi NW 11.5 mph - N/A   Clear
10:56 PM 52.0 °F - 17.1 °F 25% 30.07 in 10.0 mi NW 10.4 mph - N/A   Clear
11:56 PM 53.1 °F - 18.0 °F 25% 30.06 in 10.0 mi North 10.4 mph - N/A   Clear